CAPE
0 0 0 0 0 0 0 0 0 0 0 0 0 0 8 0 105 218 498 499 554 403 259 279 427 605 511 760 1323 1491 1079 1269
0 0 0 0 0 0 0 0 0 0 0 0 0 0 0 6 17 167 219 436 547 761 565 398 429 487 654 805 1280 1378 1194 1514
0 0 0 0 0 0 8 0 0 0 0 0 0 0 0 0 0 0 164 297 492 833 860 717 593 534 624 746 1014 1202 1253 1354
0 0 0 0 0 0 35 11 0 0 0 0 0 0 0 0 1 0 0 156 447 556 787 878 858 762 740 718 744 1112 1260 1495
0 0 0 0 0 6 2 0 18 1 0 0 0 0 0 0 0 0 0 66 278 406 527 931 992 987 825 814 798 841 1226 1310
0 0 0 0 0 2 38 31 6 9 18 0 1 1 0 0 0 0 2 18 113 304 499 800 1041 1318 1257 933 873 763 895 1008
0 0 0 0 0 5 46 50 16 7 3 22 27 0 28 0 0 0 3 23 70 154 517 1157 1198 1575 1505 1195 1148 975 998 1009
0 0 0 0 0 0 0 0 0 0 0 0 0 54 22 0 11 10 0 0 0 57 253 562 932 1575 1833 1544 1470 1216 1275 1168
21 1 0 0 0 0 0 0 0 0 0 0 0 0 20 80 96 84 73 26 53 85 62 193 566 1076 1556 1867 1611 1587 1562 1593
20 9 4 0 0 0 0 0 0 0 0 0 0 0 2 614 290 160 181 161 201 297 300 282 333 631 978 1560 1932 1827 1830 2075
35 19 5 0 35 84 2 0 5 4 0 0 0 0 0 29 329 382 403 434 394 363 344 454 628 384 456 1163 2124 2032 2320 2035
31 23 11 4 92 1 14 0 57 138 3 3 5 11 8 160 53 96 200 433 647 733 736 825 942 977 888 611 1525 2287 2364 2313
3 39 38 184 30 0 0 0 0 16 27 84 73 210 80 0 0 0 2 301 495 1229 1298 1422 1594 1336 1225 693 1145 2037 2384 2538
42 74 24 160 21 0 0 0 0 2 0 1 3 0 0 0 0 0 0 0 68 1512 1890 1768 1693 1714 1817 1543 1095 1959 2286 2558
64 34 201 51 9 12 0 0 1 15 3 5 2 0 0 0 0 0 0 0 2 819 2522 2318 1611 1050 1576 1411 1739 2193 2449 2660
1 26 3 2 2 1 0 0 1 20 11 6 9 5 0 0 0 1 0 0 2 77 687 1438 1624 2078 2029 2171 2176 2573 2632 2763
0 1 0 2 6 7 2 5 26 24 3 2 2 12 0 0 0 13 3 4 2 3 4 4 32 428 915 1845 2355 2331 2666 2653
0 1 3 3 7 8 5 28 15 8 3 3 3 5 1 0 1 35 3 11 0 1 0 1 0 0 18 420 1875 2411 2583 2692
3 5 2 7 10 12 8 28 14 1 2 6 3 5 0 0 25 12 13 0 19 7 0 0 2 0 0 0 492 2226 2481 2775
CIN
0 0 0 0 0 0 0 0 0 0 0 0 0 0 -13 0 -4 -13 -4 -12 -44 -73 -115 -135 -139 -122 -140 -106 -74 -47 -53 -36
0 0 0 0 0 0 0 0 0 0 0 0 0 0 0 -7 -4 -27 -103 -10 -18 -48 -95 -124 -155 -152 -122 -108 -92 -78 -51 -30
0 0 0 0 0 0 -10 0 0 0 0 0 0 0 0 0 0 0 -48 -8 -13 -33 -65 -106 -121 -139 -152 -135 -101 -81 -64 -41
0 0 0 0 0 0 -10 -6 0 0 -2 0 0 0 0 0 -3 0 0 -4 -8 -17 -40 -63 -104 -124 -158 -169 -167 -147 -107 -57
0 0 0 0 0 -3 -3 0 -9 -1 0 0 0 0 0 0 0 0 0 -7 -6 -6 -8 -58 -82 -109 -140 -160 -177 -158 -113 -90
0 0 0 0 0 -4 -6 -9 -4 -13 -11 0 -7 -5 0 0 0 0 -26 -12 -6 -7 -7 -54 -56 -96 -116 -148 -140 -148 -143 -123
0 0 0 0 0 -2 -8 -6 -15 -10 -23 -14 -9 -13 -3 0 0 0 -5 -4 -4 -4 -5 -8 -43 -62 -102 -106 -120 -139 -151 -168
0 0 0 0 0 0 0 0 0 0 0 0 0 -30 -5 0 -7 -3 0 0 0 -8 -8 -24 -45 -54 -85 -106 -111 -135 -142 -196
-7 -6 0 0 0 0 0 0 0 0 0 0 0 0 -16 -3 -3 -5 -6 -3 -12 -48 -72 -47 -56 -75 -77 -114 -99 -93 -126 -124
-4 -13 -17 0 0 0 0 0 0 0 0 0 0 0 -24 -7 -44 -40 -43 -76 -84 -100 -104 -120 -100 -58 -84 -74 -121 -121 -136 -105
-3 -5 -6 -7 -16 -37 -14 0 -30 -4 0 0 0 0 -1 -29 -34 -49 -70 -98 -144 -167 -184 -190 -166 -137 -105 -100 -102 -140 -130 -168
-3 -7 -5 -8 -37 -219 -118 -2 -10 -8 -2 0 -27 -47 -5 -47 -111 -143 -149 -142 -158 -179 -199 -192 -223 -195 -126 -143 -125 -177 -185 -217
-4 -3 -5 -19 -95 0 -13 0 0 -51 -12 -3 -7 -8 -38 0 0 0 -205 -204 -232 -140 -143 -153 -163 -185 -175 -171 -140 -194 -191 -141
-3 -3 -3 -39 -47 0 0 0 0 -1 -2 -41 -29 0 0 0 0 0 0 0 -425 -116 -47 -100 -95 -127 -151 -177 -175 -159 -169 -155
-2 -2 -8 -45 0 -28 0 0 0 0 0 0 -1 -1 0 0 0 0 0 0 0 -200 -13 -20 -60 -107 -139 -201 -126 -144 -151 -154
-10 -7 0 0 0 0 0 0 0 0 0 -1 0 -1 0 0 0 0 0 0 0 -362 -199 -105 -143 -134 -49 -56 -90 -95 -104 -114
0 0 0 0 0 0 -1 0 -1 0 -6 0 0 0 0 0 0 0 -2 -3 0 0 0 0 -256 -334 -264 -126 -49 -82 -71 -97
0 0 0 0 0 -1 0 0 0 0 0 0 0 0 0 0 -3 0 -5 -1 0 -1 0 0 0 0 -158 -374 -75 -29 -43 -67
0 0 0 0 0 0 0 0 -1 -11 0 0 0 0 0 0 0 -4 -1 -1 -1 -2 0 0 0 0 0 -5 -308 -10 -8 -13
Wind_Speed
25 29 35 37 42 41 47 47 49 39 47 46 41 42 20 37 17 20 19 17 17 18 22 23 26 24 25 20 20 20 20 18
26 29 36 41 36 42 48 54 58 47 44 43 44 44 44 37 29 17 37 17 16 17 20 24 24 24 22 20 20 20 22 21
34 32 38 36 46 45 43 51 57 51 47 34 31 37 43 38 30 35 18 14 16 16 18 20 19 21 23 23 18 21 22 22
38 29 35 45 44 47 51 49 53 54 47 31 25 27 31 38 32 36 32 21 17 16 16 17 20 21 23 22 24 19 22 23
40 40 40 42 44 42 46 55 53 55 52 39 18 26 26 33 38 34 37 25 20 19 17 17 18 19 22 24 24 20 20 22
43 30 30 40 47 45 46 52 57 57 46 45 21 22 28 32 30 34 31 35 25 21 18 17 17 18 19 22 22 20 18 21
39 39 35 37 38 40 46 45 51 52 50 45 37 26 21 21 26 31 30 31 34 28 21 21 19 20 19 18 19 21 19 19
42 37 37 41 42 43 47 49 49 52 52 40 32 35 30 26 26 21 27 26 28 29 26 24 22 20 18 19 21 23 19 21
45 38 39 47 44 44 48 49 52 57 51 40 38 29 33 32 29 25 27 28 27 29 29 28 25 23 20 18 19 19 23 18
41 40 47 40 36 40 49 49 49 54 57 51 45 36 33 26 30 30 29 31 31 31 32 32 31 26 24 19 19 21 21 19
40 42 41 41 30 31 34 45 39 49 51 56 49 46 40 37 27 30 30 31 33 33 34 36 35 33 28 21 18 20 21 24
35 41 47 36 22 27 31 47 35 36 47 49 45 50 41 28 29 32 33 33 35 36 38 39 38 36 33 28 21 20 24 27
35 39 36 25 25 28 41 40 33 32 33 37 42 36 31 33 33 31 33 34 36 38 41 41 40 37 36 30 25 21 19 20
38 31 42 24 29 35 32 36 35 35 34 37 36 37 37 35 33 31 32 33 33 36 37 39 39 38 37 34 33 25 21 20
26 30 22 25 30 30 32 36 42 37 33 34 36 36 35 34 32 28 27 30 30 30 28 26 31 32 36 38 30 25 23 20
21 23 24 26 29 31 32 39 39 34 30 30 33 32 33 30 29 25 24 25 24 23 21 21 22 22 28 28 27 26 25 23
18 24 26 23 24 25 30 34 29 28 27 28 29 30 29 27 25 22 20 20 18 18 17 18 19 20 23 27 30 30 28 26
18 22 22 22 25 23 25 24 21 23 25 26 26 27 25 25 22 19 18 17 16 16 16 17 18 18 20 24 28 31 29 28
8 13 12 21 21 20 21 19 20 22 21 25 24 23 23 23 19 17 16 16 16 16 16 16 14 15 16 19 23 25 28 28
Wind_Direction
267 255 253 252 244 250 255 255 252 252 249 250 246 246 245 232 236 203 202 203 196 187 182 180 179 181 186 205 215 210 202 218
267 263 257 252 253 247 248 247 245 251 247 247 242 244 246 249 255 240 241 199 206 196 185 182 182 184 184 192 212 219 226 226
265 258 254 251 250 252 255 245 244 247 247 254 251 245 246 247 247 249 239 232 226 208 193 189 190 186 187 189 206 222 223 228
260 265 261 254 251 248 246 245 244 246 249 261 265 253 244 247 247 246 251 246 226 225 207 201 193 190 188 188 189 210 226 228
261 263 262 257 249 250 250 246 245 240 242 247 277 258 256 250 247 248 246 241 239 238 226 210 201 197 189 188 189 196 227 225
258 273 273 254 248 249 248 245 243 242 244 242 261 268 259 255 249 247 244 244 240 236 232 224 219 210 204 191 192 193 210 225
266 267 267 261 254 247 246 246 243 240 244 247 253 261 264 265 256 250 252 250 244 244 235 236 236 233 221 210 198 194 200 217
263 265 264 259 256 252 249 246 248 244 246 251 268 254 268 260 259 254 252 256 253 248 250 246 243 239 223 212 200 193 202 201
260 262 262 255 252 254 251 250 247 242 242 251 251 255 263 261 258 259 254 258 256 255 253 252 246 246 240 220 216 205 197 224
263 263 255 257 259 260 254 252 250 247 245 248 251 255 275 271 258 262 261 260 261 259 256 254 254 251 249 240 213 210 204 206
260 257 260 257 262 263 258 248 254 250 245 244 249 254 265 272 260 261 264 263 261 260 258 255 254 253 253 242 229 217 211 199
262 255 250 257 270 273 263 247 259 266 244 246 246 248 252 273 267 264 266 266 265 263 260 255 253 252 251 248 234 215 205 198
255 254 258 277 279 275 248 246 266 267 258 252 247 262 263 267 266 270 269 270 271 266 259 256 253 251 249 247 236 218 226 229
236 260 253 283 273 259 261 263 267 266 261 258 259 260 260 261 266 274 273 275 274 270 263 258 254 250 247 246 247 239 232 231
249 247 286 279 272 273 272 266 260 260 260 262 256 256 257 259 263 272 281 279 276 273 271 268 260 252 247 247 242 234 233 232
226 222 239 242 254 267 277 260 263 258 263 263 255 254 251 257 263 271 282 282 280 278 274 273 275 266 253 242 238 235 237 235
210 246 265 255 256 253 263 265 262 258 261 257 252 248 250 255 260 266 280 286 287 284 282 281 278 271 265 256 242 239 238 235
231 271 257 249 263 276 266 258 257 257 249 247 246 246 249 252 260 265 279 288 292 293 292 286 283 278 274 263 254 241 236 232
142 225 205 277 287 277 272 272 251 245 252 240 242 246 249 251 259 267 280 286 287 291 293 289 292 279 282 268 259 245 237 235